Location: Bonnesvalyn
(49.1218°N, 3.3177°E)
Time: 19:43:54
(UTC+00:00)

Cosmos 1812 Rocket - Pass Details

Date: 09 February 2023
Orbit: 603 x 631 km, 82.5° (Epoch: 25 March)

Event Time Altitude Azimuth Distance (km) Brightness Sun altitude
Rises 19:02:40 0° 347° (NNW) 2,935 7.2 -21.0°
Reaches altitude 10° 19:04:56 10° 344° (NNW) 2,020 6.4 -21.4°
Maximum altitude 19:09:21 61° 265° (W) 714 4.1 -22.1°
Drops below altitude 10° 19:13:42 10° 185° (S) 1,989 6.2 -22.8°
Sets 19:15:55 0° 182° (S) 2,885 7.0 -23.2°
